リニア彗星

C/2007 Y1 ( LINEAR )

English version
Home page
Updated on October 12, 2008

---------------------------------------------------------------------

・ プロフィール

発見日 2007年12月16日
発見光度 18.8等
発見者 Lincoln Laboratory Near-Earth Asteroid Research project

・ 写真集

・ 軌道要素

Epoch 2008 Apr. 4.0 TT = JDT 2454560.5
T 2008 Mar. 19.32144 TT                                 MPC
q   3.3408225            (2000.0)            P               Q
z  -0.0001152      Peri.  357.12499     -0.69494887     +0.21729293
 +/-0.0000714      Node   133.09228     +0.67703540     -0.12337045
e   1.0003850      Incl.  110.17665     +0.24221710     +0.96827863

・ 光度変化

        m1 = 10.3 + 5 logΔ + 10.0 log r

---------------------------------------------------------------------

軌道要素はM.P.E.C. 2008-E13に掲載されたものです。
光度グラフはComet for Windowsで作成したものです。

---------------------------------------------------------------------

Copyright(C) Seiichi Yoshida (comet@aerith.net). All rights reserved.